Regional Weather Roundup
Issued by NWS Goodland, KS

Home | Current Version | Previous Version | Text Only | Print | Product List | Glossary On
Versions: 1 2 3 4 5 6 7 8 9 10 11 12 13 14 15 16 17 18 19 20 21 22 23 24 25 26 27 28 29 30 31 32 33 34 35 36 37 38 39 40 41 42 43 44 45 46 47 48 49 50
000
ASUS43 KGLD 290008
RWRGLD

GOODLAND FORECAST AREA HOURLY WEATHER ROUNDUP
NATIONAL WEATHER SERVICE GOODLAND KS
600 PM MDT SAT MAR 28 2015

...OFFICIAL OBSERVATIONS...

CITY           SKY/WX    TMP DP  RH WIND       PRES   REMARKS
GOODLAND KS    SUNNY     79  20  11 W9        29.87F
HILL CITY KS   SUNNY     74  37  26 SE16G22   29.89F
IMPERIAL NEB     N/A     81  21  11 W15G26    29.79F
MCCOOK NEB     SUNNY     78  34  20 SE20G29   29.81F
AKRON CO       SUNNY     77  23  13 W13       29.87F
BURLINGTON CO  SUNNY     78  19  11 SW10      29.90F
LIMON CO       SUNNY     72  19  13 S15       29.95S
$$

...UNOFFICIAL OBSERVATIONS...

CITY           SKY/WX    TMP DP  RH WIND       PRES   REMARKS
COLBY KS       SUNNY     79  37  22 SE15G21   29.87F
GOVE KS          N/A     77  32  19 MISG        N/A
LENORA KS        N/A     73  32  22 MISG        N/A
NORTON KS      SUNNY     70  30  23 SE13G21   29.86F
SHARON SPRINGS   N/A     80  30  16 SW12        N/A
TRIBUNE KS     SUNNY     81  43  26 SW9       29.93F
KIT CARSON CO    N/A     79  29  16 MISG        N/A
YUMA CO          N/A     79  24  13 W12G20      N/A
$$


USA.gov is the U.S. government's official web portal to all federal, state and local government web resources and services.